Seward, AK

5:46 PM AKST on January 18, 2017 (GMT -0900)
Seward

Weather History for PAWD - January, 2013

Change the Weather History Date:

Sunday, January 20, 2013

  Actual Average Record
Temperature  
Mean Temperature 34 °F -  
Max Temperature 37 °F 30 °F 48 °F (2014)
Min Temperature 28 °F 20 °F -3 °F (1951)
Degree Days  
Heating Degree Days 32    
Moisture  
Dew Point 32 °F    
Average Humidity 90    
Maximum Humidity 100    
Minimum Humidity 79    
Precipitation  
Precipitation 0.48 in - - ()
Sea Level Pressure  
Sea Level Pressure 29.87 in    
Wind  
Wind Speed 4 mph (North)    
Max Wind Speed 13 mph    
Max Gust Speed -    
Visibility 8 miles    
Events Rain , Snow    
Averages and records for this station are not official NWS values.
T = Trace of Precipitation, MM = Missing Value Source: NWS Daily Summary

Daily Weather History Graph

Daily Weather History Graph

Search for Another Location

Airport or City:

Trip Planner

Search our weather history database for the weather conditions in past years. The results will help you decide how hot, cold, wet, or windy it might be!

Date:

Astronomy

Jan. 20, 2013 Rise Set
Actual Time 9:36 AM AKST 4:41 PM AKST
Civil Twilight 8:45 AM AKST 5:32 PM AKST
Nautical Twilight 7:52 AM AKST 6:26 PM AKST
Astronomical Twilight 7:02 AM AKST 7:15 PM AKST
Moon 11:52 AM AKST (1/20) 4:11 AM AKST (1/20)
Length of Visible Light 8h 47m
Length of Day
7h 05m
Waxing Gibbous, 67% of the Moon is Illuminated
Jan 20
Waxing Gibbous
Jan 26
Full
Feb 3
Last Quarter
Feb 9
New
Feb 17
First Quarter

Hourly Weather History & Observations

Time (AKST) Temp. Windchill Dew Point Humidity Pressure Visibility Wind Dir Wind Speed Gust Speed Precip Events Conditions
12:08 AM 33.8 °F 30.8 °F 33.8 °F 100% 29.92 in 2.5 mi West 3.5 mph - 0.01 in Snow Light Snow
12:17 AM 33.8 °F - 33.8 °F 100% 29.92 in 3.0 mi Calm Calm - 0.02 in Snow Light Snow
12:31 AM 33.8 °F - 32.0 °F 93% 29.92 in 2.5 mi Calm Calm - 0.03 in Snow Light Snow
12:53 AM 33.1 °F - 33.1 °F 100% 29.92 in 2.5 mi Calm Calm - 0.05 in Snow Light Snow
1:02 AM 33.8 °F - 32.0 °F 93% 29.93 in 3.0 mi Calm Calm - 0.00 in Snow Light Snow
1:53 AM 34.0 °F - 32.0 °F 92% 29.94 in 6.0 mi Calm Calm - 0.04 in Snow Light Snow
3:36 AM 35.6 °F 31.7 °F 32.0 °F 87% 29.93 in 10.0 mi NNW 4.6 mph - 0.02 in   Overcast
3:53 AM 36.0 °F 33.3 °F 32.0 °F 86% 29.91 in 10.0 mi NNW 3.5 mph - 0.03 in   Overcast
4:53 AM 34.0 °F 29.8 °F 32.0 °F 92% 29.90 in 10.0 mi ENE 4.6 mph - 0.02 in   Overcast
5:53 AM 34.0 °F - 32.0 °F 92% 29.88 in 10.0 mi Calm Calm - 0.01 in   Overcast
6:53 AM 34.0 °F - 33.1 °F 96% 29.88 in 10.0 mi Calm Calm - 0.01 in   Overcast
7:53 AM 36.0 °F 31.1 °F 33.1 °F 89% 29.88 in 10.0 mi North 5.8 mph - N/A   Overcast
8:53 AM 36.0 °F 28.0 °F 33.1 °F 89% 29.87 in 10.0 mi North 11.5 mph - 0.07 in Rain Light Rain
9:42 AM 37.4 °F 29.3 °F 32.0 °F 81% 29.86 in 10.0 mi North 12.7 mph - 0.06 in   Overcast
9:53 AM 37.0 °F 30.4 °F 32.0 °F 82% 29.86 in 10.0 mi NNW 9.2 mph - 0.07 in   Overcast
10:53 AM 37.0 °F 31.0 °F 33.1 °F 86% 29.85 in 10.0 mi North 8.1 mph - 0.07 in   Overcast
11:51 AM 37.4 °F 31.4 °F 33.8 °F 87% 29.84 in 10.0 mi North 8.1 mph - 0.05 in Rain Light Rain
11:53 AM 37.0 °F 31.0 °F 33.1 °F 86% 29.84 in 10.0 mi North 8.1 mph - 0.05 in Rain Light Rain
12:53 PM 37.9 °F 33.5 °F 34.0 °F 86% 29.84 in 10.0 mi NNE 5.8 mph - 0.05 in   Overcast
1:53 PM 37.9 °F 33.5 °F 34.0 °F 86% 29.83 in 10.0 mi North 5.8 mph - 0.01 in   Overcast
2:53 PM 37.9 °F 30.5 °F 32.0 °F 79% 29.81 in 10.0 mi North 11.5 mph - N/A   Overcast
3:53 PM 37.9 °F 32.7 °F 32.0 °F 79% 29.80 in 10.0 mi North 6.9 mph - N/A   Overcast
4:53 PM 36.0 °F - 33.1 °F 89% 29.82 in 10.0 mi Calm Calm - N/A   Overcast
5:53 PM 37.0 °F 29.8 °F 32.0 °F 82% 29.81 in 10.0 mi North 10.4 mph - N/A   Partly Cloudy
6:53 PM 35.1 °F - 32.0 °F 89% 29.81 in 10.0 mi Calm Calm - N/A   Clear
7:53 PM 34.0 °F - 32.0 °F 92% 29.83 in 10.0 mi Calm Calm - N/A   Clear
8:53 PM 30.0 °F - 28.9 °F 96% 29.83 in 8.0 mi Calm Calm - N/A   Clear
9:53 PM 32.0 °F 27.5 °F 30.0 °F 92% 29.84 in 10.0 mi NNW 4.6 mph - N/A   Clear
10:53 PM 30.9 °F - 28.9 °F 92% 29.86 in 9.0 mi Calm Calm - N/A   Clear
11:53 PM 28.9 °F 23.9 °F 28.0 °F 96% 29.86 in 8.0 mi North 4.6 mph - N/A   Mostly Cloudy